STARLINK-1636, 46153

Orbit data source: Space-Track

STARLINK-1636, 46153 is a payload satellite in LEO that was launched on Tue, 18 Aug 2020 UTC via an FALCON 9 launch vehicle from the Air Force Eastern Test Range (AFETR). Payload-class satellites include a variety of spacecraft equipped with specific instruments for various scientific and technological missions. These include communications satellites like Starlink; space stations such as the ISS; scientific satellites like the Hubble; Earth observation satellites from companies like Planet Labs, Umbra, and HawkEye 360; GPS; miniature CubeSats for education and research; and military/defense satellites.

Loading next visibility...
Identifier
46153, 2020-057AN
Orbit
LEO
Last TLE update
17 hours ago
Origin
Manufacturer
SpaceX/Seattle
Mission
Partially operational Commercial Communications
Bus & Motor
STARLINK, Unknown motor
Mass
260 kg wet, ~248 kg dry
Launch date (UTC)
2020-08-18 (5 years ago)
Launch vehicle
FALCON 9
Launch site
Air Force Eastern Test Range (AFETR)
Object type
Payload
Rocket body
Debris
Shape & HBR
Box + 1 Pan, 8.86 m
Radar Cross Section
13.562 m², Large (>1 m²)

Expand to show TLE details & history

TLE from 17 hours ago
0 STARLINK-1636
1 46153U 20057AN  25141.27598975  .00095841  00000-0  19145-2 0  9997
2 46153  53.0321 146.8627 0009473 321.5753  38.4577 15.46012899262580
Epoch: 2025-05-21T06:37Z
TLE epoch observation values (Epoch: 2025-05-21T06:37:25.514Z)
Latitude
-0.00005°
Longitude
168.34412°
Altitude
424.249 km
Speed
7.661 km/s
True Right ascension
09h 47m 27s
True Declination
0° 00' 00"
Sunlit
Object was in daylight at epoch
Visualization orbit readout
Latitude
-14.40548°
Longitude
153.8807°
Altitude
425.757 km
Speed
7.66 km/s
Apparent Right ascension
09h 29m 15s
Apparent Declination
-73° 17' 16"
Sunlit
Object is in daylight
Visualization observer readout
Local Sidereal Time
08:35:40
Azimuth
175.832° S
Elevation
-23.578°
Doppler factor
1
Orbital elements
Apogee altitude
435.131 km
Perigee altitude
422.234 km
Semi-major axis
6,806.819 km
Eccentricity
0.00095
Inclination
53.0321°
RAAN
146.8627°
Arg. of periapsis
321.5753°
True anomaly
Unknown
Mean anomaly
38.4577°
Eccentric anomaly
Unknown
Mean motion
3.8648 °/min
Orbital period
93.15 mins
BSTAR
0.0019145
Loading maneuver chart data...
Loading SW <> Apogee altitude chart data...
Loading historical data...
Loading historical data...
Loading historical data...
Loading historical data...
Loading historical data...
Loading historical data...
Loading historical data...

STARLINK-1636 Visibility forecast

Observer location: undefined°, undefined°

Span
Click to sort rows by Start time (UTC) header in descending order
Start Az.
Max El. time (UTC)
Max El. Az.
Max El.
End time (UTC)
End Az.
6 mins2025-05-22 02:57:42.437Z224.707° SW2025-05-22 03:00:42.437Z197.567° SSW42.747°2025-05-22 03:03:42.437Z53.466° ENE
5 mins2025-05-22 09:29:42.437Z321.281° NNW2025-05-22 09:31:42.437Z21.347° NNE40.651°2025-05-22 09:34:42.437Z116.73° SE
|